Toronto Pearson, Ontario

7:45 PM EDT on June 17, 2018 (GMT -0400)
Toronto-Pearson International

Weather History for CYYZ - November, 2010

Change the Weather History Date:

Sunday, November 21, 2010

  Actual Average Record
Temperature  
Mean Temperature 38 °F -  
Max Temperature 46 °F 37 °F 55 °F (2003)
Min Temperature 29 °F 23 °F 15 °F (2008)
Degree Days  
Heating Degree Days 28    
Moisture  
Dew Point 28 °F    
Average Humidity 70    
Maximum Humidity 93    
Minimum Humidity 46    
Precipitation  
Precipitation 0.00 in 0.09 in - ()
Sea Level Pressure  
Sea Level Pressure 30.33 in    
Wind  
Wind Speed 10 mph ()    
Max Wind Speed 20 mph    
Max Gust Speed 25 mph    
Visibility 14.0 miles    
Events Snow    
Averages and records for this station are not official NWS values.
T = Trace of Precipitation, MM = Missing Value Source: Averaged Metar Reports

Daily Weather History Graph

Daily Weather History Graph

Search for Another Location

Airport or City:

Astronomy

Nov. 21, 2010 Rise Set
Actual Time 7:20 AM EST 4:48 PM EST
Civil Twilight 6:48 AM EST 5:19 PM EST
Nautical Twilight 6:13 AM EST 5:54 PM EST
Astronomical Twilight 5:39 AM EST 6:28 PM EST
Moon 4:34 PM EST (11/21) 7:22 AM EST (11/21)
Length of Visible Light 10h 30m
Length of Day
9h 27m
Full, 100% of the Moon is Illuminated
Nov 21
Full
Nov 21
Full
Nov 28
Last Quarter
Dec 5
New
Dec 13
First Quarter

Hourly Weather History & Observations

Time (EST) Temp. Windchill Dew Point Humidity Pressure Visibility Wind Dir Wind Speed Gust Speed Precip Events Conditions
12:00 AM 33.8 °F 28.6 °F 21.2 °F 60% 30.41 in 15.0 mi NE 5.8 mph - N/A   Mostly Cloudy
1:00 AM 33 °F - 20 °F 46% 30.41 in 15 mi ENE 6.9 mph - -   Overcast
1:00 AM 33.8 °F 27.0 °F 19.4 °F 56% 30.41 in 15.0 mi ENE 8.1 mph - N/A   Overcast
2:00 AM 32.0 °F 26.4 °F 19.4 °F 60% 30.42 in 15.0 mi East 5.8 mph - N/A   Mostly Cloudy
3:00 AM 32.0 °F 24.8 °F 21.2 °F 64% 30.44 in 15.0 mi ENE 8.1 mph - N/A   Mostly Cloudy
4:00 AM 32.0 °F 22.5 °F 21.2 °F 64% 30.44 in 15.0 mi ENE 12.7 mph - N/A   Mostly Cloudy
5:00 AM 30.2 °F 19.8 °F 21.2 °F 69% 30.45 in 15.0 mi East 13.8 mph - N/A   Overcast
6:00 AM 30.2 °F 21.3 °F 19.4 °F 64% 30.45 in 15.0 mi ENE 10.4 mph - N/A   Overcast
7:00 AM 30 °F - 20 °F 56% 30.47 in 15 mi East 9.2 mph - -   Mostly Cloudy
7:00 AM 30.2 °F 21.9 °F 21.2 °F 69% 30.47 in 15.0 mi East 9.2 mph 17.3 mph N/A   Mostly Cloudy
8:00 AM 30.2 °F 19.8 °F 21.2 °F 69% 30.46 in 15.0 mi East 13.8 mph - N/A   Mostly Cloudy
9:00 AM 30.2 °F 20.8 °F 23.0 °F 75% 30.46 in 15.0 mi East 11.5 mph 18.4 mph N/A   Mostly Cloudy
9:14 AM 30.2 °F 20.8 °F - N/A% - 10.0 mi East 11.5 mph - N/A Snow Light Snow Showers
9:25 AM 30.2 °F 22.6 °F - N/A% - 2.5 mi East 8.1 mph 17.3 mph N/A Snow Light Snow Showers
10:00 AM 32.0 °F 23.6 °F 30.2 °F 93% 30.43 in 6.0 mi East 10.4 mph - N/A Snow Light Snow Showers
10:16 AM 33.8 °F 25.8 °F - N/A% - 12.0 mi East 10.4 mph 19.6 mph N/A   Overcast
11:00 AM 37.4 °F 27.5 °F 32.0 °F 81% 30.41 in 15.0 mi ESE 18.4 mph 24.2 mph N/A   Mostly Cloudy
12:00 PM 37.4 °F 27.2 °F 30.2 °F 75% 30.38 in 15.0 mi East 19.6 mph - N/A   Mostly Cloudy
1:00 PM 38 °F - 30 °F 64% 30.33 in 15 mi ESE 18.4 mph - -   Partly Cloudy
1:00 PM 39.2 °F 29.8 °F 30.2 °F 70% 30.33 in 15.0 mi ESE 18.4 mph 25.3 mph N/A   Mostly Cloudy
2:00 PM 39.2 °F 29.6 °F 32.0 °F 75% 30.30 in 15.0 mi East 19.6 mph 25.3 mph N/A   Overcast
3:00 PM 39.2 °F 29.8 °F 33.8 °F 81% 30.26 in 15.0 mi ESE 18.4 mph 24.2 mph N/A   Overcast
4:00 PM 39.2 °F 30.2 °F 32.0 °F 75% 30.23 in 15.0 mi ESE 17.3 mph - N/A   Overcast
5:00 PM 39.2 °F 30.8 °F 32.0 °F 75% 30.21 in 15.0 mi East 15.0 mph 20.7 mph N/A   Overcast
6:00 PM 41.0 °F 33.1 °F 33.8 °F 76% 30.19 in 15.0 mi ESE 15.0 mph - N/A   Overcast
7:00 PM 43 °F - 35 °F 64% 30.17 in 15 mi ESE 11.5 mph - -   Mostly Cloudy
7:00 PM 42.8 °F 36.6 °F 35.6 °F 76% 30.17 in 15.0 mi ESE 11.5 mph - N/A   Mostly Cloudy
8:00 PM 44.6 °F 38.8 °F 35.6 °F 71% 30.14 in 15.0 mi ESE 11.5 mph - N/A   Mostly Cloudy
9:00 PM 44.6 °F 39.2 °F 37.4 °F 76% 30.12 in 15.0 mi ESE 10.4 mph - N/A   Mostly Cloudy
10:00 PM 46.4 °F 42.4 °F 39.2 °F 76% 30.09 in 15.0 mi ESE 8.1 mph - N/A   Overcast
11:00 PM 46.4 °F 43.5 °F 39.2 °F 76% 30.07 in 15.0 mi ESE 5.8 mph - N/A   Overcast